Weather History for Tekamah, NE

Change the Weather History Date:

Wednesday, January 16, 2013

  Actual Average Record
Temperature  
Mean Temperature 36 °F -  
Max Temperature 51 °F 33 °F 55 °F (1961)
Min Temperature 21 °F 10 °F -19 °F (1953)
Degree Days  
Heating Degree Days 29    
Moisture  
Dew Point 26 °F    
Average Humidity 72    
Maximum Humidity 86    
Minimum Humidity 48    
Precipitation  
Precipitation 0.00 in - - ()
Sea Level Pressure  
Sea Level Pressure 30.05 in    
Wind  
Wind Speed 11 mph (WNW)    
Max Wind Speed 17 mph    
Max Gust Speed -    
Visibility 9 miles    
Events      
Averages and records for this station are not official NWS values.
T = Trace of Precipitation, MM = Missing Value Source: NWS Daily Summary

Daily Weather History Graph

Daily Weather History Graph

Search for Another Location

Airport:

Trip Planner

Search our weather history database for the weather conditions in past years. The results will help you decide how hot, cold, wet, or windy it might be!

Date:

Astronomy

Jan. 16, 2013 Rise Set
Actual Time 7:48 AM CST 5:20 PM CST
Civil Twilight 7:18 AM CST 5:51 PM CST
Nautical Twilight 6:44 AM CST 6:25 PM CST
Astronomical Twilight 6:10 AM CST 6:58 PM CST
Moon 10:20 AM CST (1/16) 11:19 PM CST (1/16)
Length of Visible Light 10h 32m
Length of Day
9h 31m
Waxing Crescent, 28% of the Moon is Illuminated
Jan 16
Waxing Crescent
Jan 18
First Quarter
Jan 26
Full
Feb 3
Last Quarter
Feb 10
New

Hourly Weather History & Observations

Time (CST) Temp. Windchill Dew Point Humidity Pressure Visibility Wind Dir Wind Speed Gust Speed Precip Events Conditions
12:54 AM 21.0 °F 10.6 °F 15.1 °F 78% 30.02 in 8.0 mi South 9.2 mph - N/A   Clear
1:54 AM 21.0 °F 11.4 °F 16.0 °F 81% 29.99 in 8.0 mi SSW 8.1 mph - N/A   Clear
2:54 AM 21.9 °F 10.4 °F 15.1 °F 75% 29.96 in 9.0 mi SSW 11.5 mph - N/A   Mostly Cloudy
3:54 AM 25.0 °F 13.1 °F 17.1 °F 72% 29.94 in 9.0 mi SW 13.8 mph - N/A   Overcast
4:54 AM 26.1 °F 17.6 °F 18.0 °F 71% 29.92 in 8.0 mi SW 8.1 mph - N/A   Overcast
6:54 AM 30.0 °F 19.1 °F 21.9 °F 72% 29.91 in 7.0 mi WSW 15.0 mph - N/A   Overcast
7:54 AM 30.0 °F 19.1 °F 23.0 °F 75% 29.94 in 7.0 mi West 15.0 mph - N/A   Scattered Clouds
8:54 AM 32.0 °F 23.6 °F 26.1 °F 79% 29.95 in 7.0 mi WSW 10.4 mph - N/A   Overcast
9:54 AM 36.0 °F 29.0 °F 28.9 °F 76% 29.96 in 9.0 mi WSW 9.2 mph - N/A   Overcast
10:54 AM 43.0 °F 36.8 °F 30.9 °F 62% 29.95 in 10.0 mi West 11.5 mph - N/A   Clear
11:54 AM 46.9 °F - 32.0 °F 56% 29.94 in 10.0 mi WNW 11.5 mph - N/A   Clear
12:54 PM 48.9 °F - 33.1 °F 54% 29.93 in 10.0 mi WNW 8.1 mph - N/A   Clear
2:54 PM 51.1 °F - 32.0 °F 48% 29.95 in 10.0 mi WNW 12.7 mph - N/A   Clear
3:54 PM 48.9 °F - 32.0 °F 52% 29.98 in 10.0 mi WNW 10.4 mph - N/A   Clear
4:54 PM 46.0 °F 39.9 °F 30.9 °F 56% 30.02 in 10.0 mi NW 13.8 mph - N/A   Clear
5:54 PM 42.1 °F 34.9 °F 30.9 °F 65% 30.07 in 10.0 mi NNW 13.8 mph - N/A   Clear
6:54 PM 39.0 °F 31.8 °F 30.0 °F 70% 30.12 in 10.0 mi NW 11.5 mph - N/A   Clear
7:54 PM 37.9 °F 30.9 °F 30.9 °F 76% 30.16 in 10.0 mi NW 10.4 mph - N/A   Overcast
8:54 PM 36.0 °F 30.3 °F 30.0 °F 79% 30.18 in 10.0 mi NNW 6.9 mph - N/A   Scattered Clouds
9:08 PM 35.6 °F 28.6 °F 30.2 °F 81% 30.17 in 10.0 mi North 9.2 mph - N/A   Mostly Cloudy
9:54 PM 34.0 °F 24.6 °F 28.9 °F 82% 30.22 in 8.0 mi North 13.8 mph - N/A   Mostly Cloudy
10:12 PM 33.8 °F 23.9 °F 28.4 °F 81% 30.21 in 8.0 mi North 15.0 mph - N/A   Scattered Clouds
10:54 PM 33.1 °F 22.2 °F 28.0 °F 82% 30.25 in 9.0 mi North 17.3 mph - N/A   Mostly Cloudy
11:29 PM 30.2 °F 20.2 °F 26.6 °F 86% 30.25 in 9.0 mi North 12.7 mph - N/A   Scattered Clouds
11:54 PM 30.0 °F 20.0 °F 25.0 °F 82% 30.28 in 10.0 mi North 12.7 mph - N/A   Clear